Time,TemperatureF,DewpointF,PressureIn,WindDirection,WindDirectionDegrees,WindSpeedMPH,WindSpeedGustMPH,Humidity,HourlyPrecipIn,Conditions,Clouds,dailyrainin,SoftwareType,DateUTC
2013-08-07 00:01:00,64.8,57.5,30.07,SE,135,0.4,1.1,77,0.00,,,0.00,WUHU216HW,2013-08-07 04:01:00,
2013-08-07 00:02:00,64.8,57.5,30.07,SE,135,1.8,1.8,77,0.00,,,0.00,WUHU216HW,2013-08-07 04:02:00,
2013-08-07 00:03:00,64.8,57.5,30.08,ESE,113,0.4,1.8,77,0.00,,,0.00,WUHU216HW,2013-08-07 04:03:00,
2013-08-07 00:08:00,64.6,57.3,30.08,ESE,113,1.3,1.8,77,0.00,,,0.00,WUHU216HW,2013-08-07 04:08:00,
2013-08-07 00:13:00,64.6,57.3,30.07,SE,135,1.1,1.6,77,0.00,,,0.00,WUHU216HW,2013-08-07 04:13:00,
2013-08-07 00:18:00,64.6,57.3,30.07,SE,135,1.6,1.6,77,0.00,,,0.00,WUHU216HW,2013-08-07 04:18:00,
2013-08-07 00:23:00,64.6,57.7,30.07,ESE,113,1.1,1.6,78,0.00,,,0.00,WUHU216HW,2013-08-07 04:23:00,
2013-08-07 00:28:00,64.6,57.7,30.07,ESE,113,1.3,1.6,78,0.00,,,0.00,WUHU216HW,2013-08-07 04:28:00,
2013-08-07 00:33:00,64.4,57.5,30.07,SE,135,0.7,1.3,78,0.00,,,0.00,WUHU216HW,2013-08-07 04:33:00,
2013-08-07 00:38:00,64.4,57.5,30.08,SE,135,1.1,1.3,78,0.00,,,0.00,WUHU216HW,2013-08-07 04:38:00,
2013-08-07 00:43:00,64.4,57.5,30.08,ESE,113,0.9,1.1,78,0.00,,,0.00,WUHU216HW,2013-08-07 04:43:00,
2013-08-07 00:48:00,64.4,57.5,30.08,ESE,113,0.4,1.1,78,0.00,,,0.00,WUHU216HW,2013-08-07 04:48:00,
2013-08-07 00:53:00,64.4,57.5,30.08,SE,135,0.0,1.1,78,0.00,,,0.00,WUHU216HW,2013-08-07 04:53:00,
2013-08-07 00:58:00,64.2,57.6,30.08,SE,135,0.2,0.7,79,0.00,,,0.00,WUHU216HW,2013-08-07 04:58:00,
2013-08-07 01:03:00,64.2,57.6,30.08,ESE,113,0.4,0.7,79,0.00,,,0.00,WUHU216HW,2013-08-07 05:03:00,
2013-08-07 01:08:00,64.2,57.6,30.08,ESE,113,0.0,0.4,79,0.00,,,0.00,WUHU216HW,2013-08-07 05:08:00,
2013-08-07 01:13:00,64.2,57.6,30.09,ESE,113,0.0,0.4,79,0.00,,,0.00,WUHU216HW,2013-08-07 05:13:00,
2013-08-07 01:18:00,64.2,57.6,30.08,ESE,113,0.0,0.0,79,0.00,,,0.00,WUHU216HW,2013-08-07 05:18:00,
2013-08-07 01:23:00,64.2,57.6,30.08,North,0,0.0,0.0,79,0.00,,,0.00,WUHU216HW,2013-08-07 05:23:00,
2013-08-07 01:28:00,64.1,57.5,30.08,NNE,23,0.0,0.0,79,0.00,,,0.00,WUHU216HW,2013-08-07 05:28:00,
2013-08-07 01:33:00,64.1,57.5,30.08,NNE,23,0.0,0.0,79,0.00,,,0.00,WUHU216HW,2013-08-07 05:33:00,
2013-08-07 01:38:00,64.2,57.6,30.08,ESE,113,0.4,0.4,79,0.00,,,0.00,WUHU216HW,2013-08-07 05:38:00,
2013-08-07 01:43:00,64.2,57.6,30.08,NNE,23,0.2,0.4,79,0.00,,,0.00,WUHU216HW,2013-08-07 05:43:00,
2013-08-07 01:48:00,64.2,58.0,30.08,ENE,68,0.0,0.4,80,0.00,,,0.00,WUHU216HW,2013-08-07 05:48:00,
2013-08-07 01:53:00,64.2,58.0,30.08,SE,135,0.0,0.4,80,0.00,,,0.00,WUHU216HW,2013-08-07 05:53:00,
2013-08-07 01:58:00,64.2,58.0,30.08,SE,135,0.0,0.4,80,0.00,,,0.00,WUHU216HW,2013-08-07 05:58:00,
2013-08-07 02:03:00,64.2,58.0,30.08,SE,135,0.0,1.1,80,0.00,,,0.00,WUHU216HW,2013-08-07 06:03:00,
2013-08-07 02:08:00,64.2,58.0,30.08,SE,135,0.2,1.1,80,0.00,,,0.00,WUHU216HW,2013-08-07 06:08:00,
2013-08-07 02:13:00,64.2,58.0,30.08,NNE,23,0.0,0.7,80,0.00,,,0.00,WUHU216HW,2013-08-07 06:13:00,
2013-08-07 02:18:00,64.2,58.0,30.08,ESE,113,0.4,0.9,80,0.00,,,0.00,WUHU216HW,2013-08-07 06:18:00,
2013-08-07 02:23:00,64.2,58.0,30.08,NE,45,0.2,0.9,80,0.00,,,0.00,WUHU216HW,2013-08-07 06:23:00,
2013-08-07 02:28:00,64.1,57.9,30.08,East,90,0.0,0.4,80,0.00,,,0.00,WUHU216HW,2013-08-07 06:28:00,
2013-08-07 02:33:00,63.9,57.7,30.07,ESE,113,0.0,1.3,80,0.00,,,0.00,WUHU216HW,2013-08-07 06:33:00,
2013-08-07 02:39:00,63.9,57.7,30.07,SE,135,0.4,1.3,80,0.00,,,0.00,WUHU216HW,2013-08-07 06:39:00,
2013-08-07 02:44:00,63.9,57.7,30.07,NNE,23,0.2,1.6,80,0.00,,,0.00,WUHU216HW,2013-08-07 06:44:00,
2013-08-07 02:49:00,63.7,57.5,30.07,NE,45,0.2,1.6,80,0.00,,,0.00,WUHU216HW,2013-08-07 06:49:00,
2013-08-07 02:53:00,63.5,57.3,30.08,ENE,68,0.0,0.4,80,0.00,,,0.00,WUHU216HW,2013-08-07 06:53:00,
2013-08-07 02:58:00,63.5,57.3,30.08,NNE,23,0.0,0.2,80,0.00,,,0.00,WUHU216HW,2013-08-07 06:58:00,
2013-08-07 03:03:00,63.5,57.3,30.08,ENE,68,0.0,0.4,80,0.00,,,0.00,WUHU216HW,2013-08-07 07:03:00,
2013-08-07 03:08:00,63.3,57.1,30.07,ENE,68,0.4,0.4,80,0.00,,,0.00,WUHU216HW,2013-08-07 07:08:00,
2013-08-07 03:13:00,63.3,57.4,30.07,SE,135,0.0,1.1,81,0.00,,,0.00,WUHU216HW,2013-08-07 07:13:00,
2013-08-07 03:18:00,63.3,57.4,30.08,ESE,113,0.0,1.1,81,0.00,,,0.00,WUHU216HW,2013-08-07 07:18:00,
2013-08-07 03:23:00,63.2,57.3,30.08,SE,135,0.9,0.9,81,0.00,,,0.00,WUHU216HW,2013-08-07 07:23:00,
2013-08-07 03:28:00,63.2,57.3,30.08,SE,135,0.0,1.3,81,0.00,,,0.00,WUHU216HW,2013-08-07 07:28:00,
2013-08-07 03:33:00,63.2,57.3,30.08,SE,135,1.1,1.3,81,0.00,,,0.00,WUHU216HW,2013-08-07 07:33:00,
2013-08-07 03:38:00,63.2,57.3,30.08,SE,135,0.9,1.1,81,0.00,,,0.00,WUHU216HW,2013-08-07 07:38:00,
2013-08-07 03:43:00,63.2,57.3,30.08,SE,135,0.4,1.6,81,0.00,,,0.00,WUHU216HW,2013-08-07 07:43:00,
2013-08-07 03:48:00,63.2,57.3,30.08,SE,135,0.7,1.6,81,0.00,,,0.00,WUHU216HW,2013-08-07 07:48:00,
2013-08-07 03:53:00,63.2,57.7,30.08,SE,135,1.1,2.0,82,0.00,,,0.00,WUHU216HW,2013-08-07 07:53:00,
2013-08-07 03:58:00,63.2,57.3,30.08,SE,135,1.1,2.0,81,0.00,,,0.00,WUHU216HW,2013-08-07 07:58:00,
2013-08-07 04:03:00,63.2,57.7,30.08,SE,135,0.4,1.1,82,0.00,,,0.00,WUHU216HW,2013-08-07 08:03:00,
2013-08-07 04:08:00,63.2,57.7,30.08,ESE,113,0.0,1.8,82,0.00,,,0.00,WUHU216HW,2013-08-07 08:08:00,
2013-08-07 04:13:00,63.2,57.7,30.09,SE,135,0.0,1.8,82,0.00,,,0.00,WUHU216HW,2013-08-07 08:13:00,
2013-08-07 04:18:00,63.2,57.7,30.09,SE,135,0.0,0.7,82,0.00,,,0.00,WUHU216HW,2013-08-07 08:18:00,
2013-08-07 04:19:00,63.2,57.7,30.09,NNW,338,0.0,0.7,82,0.00,,,0.00,WUHU216HW,2013-08-07 08:19:00,
2013-08-07 04:24:00,63.2,57.7,30.09,SSE,158,0.0,0.0,82,0.00,,,0.00,WUHU216HW,2013-08-07 08:24:00,
2013-08-07 04:29:00,63.2,57.7,30.09,ESE,113,1.1,1.8,82,0.00,,,0.00,WUHU216HW,2013-08-07 08:29:00,
2013-08-07 04:34:00,63.2,57.7,30.09,East,90,0.4,1.8,82,0.00,,,0.00,WUHU216HW,2013-08-07 08:34:00,
2013-08-07 04:39:00,63.2,57.7,30.08,ESE,113,1.6,1.6,82,0.00,,,0.00,WUHU216HW,2013-08-07 08:39:00,
2013-08-07 04:44:00,63.2,57.7,30.08,East,90,1.1,2.2,82,0.00,,,0.00,WUHU216HW,2013-08-07 08:44:00,
2013-08-07 04:49:00,63.2,57.7,30.08,ESE,113,0.4,2.2,82,0.00,,,0.00,WUHU216HW,2013-08-07 08:49:00,
2013-08-07 04:54:00,63.2,58.0,30.08,SE,135,0.4,1.1,83,0.00,,,0.00,WUHU216HW,2013-08-07 08:54:00,
2013-08-07 04:59:00,63.2,58.0,30.08,SE,135,1.1,1.8,83,0.00,,,0.00,WUHU216HW,2013-08-07 08:59:00,
2013-08-07 05:04:00,63.2,58.0,30.08,SE,135,0.9,1.8,83,0.00,,,0.00,WUHU216HW,2013-08-07 09:04:00,
2013-08-07 05:09:00,63.2,58.0,30.08,South,180,0.9,1.1,83,0.00,,,0.00,WUHU216HW,2013-08-07 09:09:00,
2013-08-07 05:14:00,63.2,58.0,30.08,SE,135,0.7,1.1,83,0.00,,,0.00,WUHU216HW,2013-08-07 09:14:00,
2013-08-07 05:19:00,63.2,58.0,30.08,SSE,158,0.7,1.1,83,0.00,,,0.00,WUHU216HW,2013-08-07 09:19:00,
2013-08-07 05:24:00,63.2,58.0,30.09,SE,135,0.9,1.1,83,0.00,,,0.00,WUHU216HW,2013-08-07 09:24:00,
2013-08-07 05:29:00,63.2,58.3,30.08,SE,135,1.1,1.1,84,0.00,,,0.00,WUHU216HW,2013-08-07 09:29:00,
2013-08-07 05:34:00,63.2,58.3,30.09,SSE,158,0.0,1.1,84,0.00,,,0.00,WUHU216HW,2013-08-07 09:34:00,
2013-08-07 05:39:00,63.2,58.3,30.09,SE,135,0.4,1.1,84,0.00,,,0.00,WUHU216HW,2013-08-07 09:39:00,
2013-08-07 05:44:00,63.2,58.3,30.09,NW,315,0.0,0.4,84,0.00,,,0.00,WUHU216HW,2013-08-07 09:44:00,
2013-08-07 05:49:00,63.3,58.4,30.09,SSW,203,0.4,0.7,84,0.00,,,0.00,WUHU216HW,2013-08-07 09:49:00,
2013-08-07 05:54:00,63.3,58.4,30.09,SE,135,0.2,1.1,84,0.00,,,0.00,WUHU216HW,2013-08-07 09:54:00,
2013-08-07 05:59:00,63.3,58.4,30.09,SE,135,0.7,1.1,84,0.00,,,0.00,WUHU216HW,2013-08-07 09:59:00,
2013-08-07 06:04:00,63.3,58.4,30.09,SE,135,0.2,1.1,84,0.00,,,0.00,WUHU216HW,2013-08-07 10:04:00,
2013-08-07 06:09:00,63.3,58.4,30.09,SE,135,0.2,1.1,84,0.00,,,0.00,WUHU216HW,2013-08-07 10:09:00,
2013-08-07 06:14:00,63.3,58.4,30.09,SE,135,0.0,0.9,84,0.00,,,0.00,WUHU216HW,2013-08-07 10:14:00,
2013-08-07 06:19:00,63.5,58.6,30.09,ENE,68,0.0,0.2,84,0.00,,,0.00,WUHU216HW,2013-08-07 10:19:00,
2013-08-07 06:24:00,63.5,58.6,30.09,NNE,23,0.2,0.4,84,0.00,,,0.00,WUHU216HW,2013-08-07 10:24:00,
2013-08-07 06:29:00,63.5,58.6,30.09,SE,135,0.0,0.4,84,0.00,,,0.00,WUHU216HW,2013-08-07 10:29:00,
2013-08-07 06:34:00,63.3,58.4,30.09,ESE,113,0.0,0.4,84,0.00,,,0.00,WUHU216HW,2013-08-07 10:34:00,
2013-08-07 06:39:00,63.5,58.6,30.09,SE,135,1.1,1.3,84,0.00,,,0.00,WUHU216HW,2013-08-07 10:39:00,
2013-08-07 06:44:00,63.5,58.6,30.09,East,90,0.4,1.3,84,0.00,,,0.00,WUHU216HW,2013-08-07 10:44:00,
2013-08-07 06:49:00,63.5,58.9,30.09,ESE,113,0.4,1.1,85,0.00,,,0.00,WUHU216HW,2013-08-07 10:49:00,
2013-08-07 06:54:00,63.5,58.9,30.09,SE,135,1.1,1.1,85,0.00,,,0.00,WUHU216HW,2013-08-07 10:54:00,
2013-08-07 06:59:00,63.5,58.9,30.10,SSW,203,0.4,1.1,85,0.00,,,0.00,WUHU216HW,2013-08-07 10:59:00,
2013-08-07 07:04:00,63.5,58.9,30.09,SE,135,0.4,1.6,85,0.00,,,0.00,WUHU216HW,2013-08-07 11:04:00,
2013-08-07 07:09:00,63.5,58.9,30.09,SE,135,0.4,1.6,85,0.00,,,0.00,WUHU216HW,2013-08-07 11:09:00,
2013-08-07 07:14:00,63.7,59.1,30.09,SE,135,1.1,1.3,85,0.00,,,0.00,WUHU216HW,2013-08-07 11:14:00,
2013-08-07 07:19:00,63.7,59.1,30.09,SE,135,0.0,1.6,85,0.00,,,0.00,WUHU216HW,2013-08-07 11:19:00,
2013-08-07 07:24:00,63.7,59.1,30.09,SE,135,0.0,1.6,85,0.00,,,0.00,WUHU216HW,2013-08-07 11:24:00,
2013-08-07 07:29:00,63.7,59.1,30.09,ESE,113,0.0,1.1,85,0.00,,,0.00,WUHU216HW,2013-08-07 11:29:00,
2013-08-07 07:34:00,63.9,59.3,30.09,West,270,0.0,1.3,85,0.00,,,0.00,WUHU216HW,2013-08-07 11:34:00,
2013-08-07 07:39:00,63.9,59.3,30.09,NW,315,0.4,1.3,85,0.00,,,0.00,WUHU216HW,2013-08-07 11:39:00,
2013-08-07 07:44:00,63.9,59.3,30.09,SE,135,1.1,2.0,85,0.00,,,0.00,WUHU216HW,2013-08-07 11:44:00,
2013-08-07 07:49:00,63.9,59.3,30.09,SSE,158,1.6,2.0,85,0.00,,,0.00,WUHU216HW,2013-08-07 11:49:00,
2013-08-07 07:54:00,64.1,59.5,30.09,SE,135,1.1,3.1,85,0.00,,,0.00,WUHU216HW,2013-08-07 11:54:00,
2013-08-07 07:59:00,64.2,59.6,30.09,SE,135,2.2,3.1,85,0.00,,,0.00,WUHU216HW,2013-08-07 11:59:00,
2013-08-07 08:04:00,64.6,60.0,30.09,SE,135,1.8,2.5,85,0.00,,,0.00,WUHU216HW,2013-08-07 12:04:00,
2013-08-07 08:09:00,64.6,60.0,30.09,SE,135,1.8,2.5,85,0.00,,,0.00,WUHU216HW,2013-08-07 12:09:00,
2013-08-07 08:14:00,64.8,60.2,30.09,SE,135,0.4,2.5,85,0.00,,,0.00,WUHU216HW,2013-08-07 12:14:00,
2013-08-07 08:19:00,64.8,60.2,30.09,ESE,113,0.9,1.8,85,0.00,,,0.00,WUHU216HW,2013-08-07 12:19:00,
2013-08-07 08:24:00,65.0,60.1,30.09,SE,135,1.8,2.5,84,0.00,,,0.00,WUHU216HW,2013-08-07 12:24:00,
2013-08-07 08:29:00,65.1,60.2,30.09,SE,135,2.5,2.5,84,0.00,,,0.00,WUHU216HW,2013-08-07 12:29:00,
2013-08-07 08:34:00,65.3,60.4,30.10,WNW,293,1.6,2.5,84,0.00,,,0.00,WUHU216HW,2013-08-07 12:34:00,
2013-08-07 08:39:00,65.3,60.4,30.09,SE,135,2.2,2.5,84,0.00,,,0.00,WUHU216HW,2013-08-07 12:39:00,
2013-08-07 08:44:00,65.3,60.4,30.09,SE,135,1.1,2.2,84,0.00,,,0.00,WUHU216HW,2013-08-07 12:44:00,
2013-08-07 08:49:00,65.3,60.4,30.09,ESE,113,0.4,2.2,84,0.00,,,0.00,WUHU216HW,2013-08-07 12:49:00,
2013-08-07 08:54:00,65.5,60.2,30.09,ESE,113,0.7,1.1,83,0.00,,,0.00,WUHU216HW,2013-08-07 12:54:00,
2013-08-07 08:59:00,65.5,60.2,30.09,ESE,113,3.1,3.1,83,0.00,,,0.00,WUHU216HW,2013-08-07 12:59:00,
2013-08-07 09:04:00,65.7,60.4,30.09,SE,135,2.5,3.1,83,0.00,,,0.00,WUHU216HW,2013-08-07 13:04:00,
2013-08-07 09:09:00,65.7,60.4,30.09,SE,135,0.4,3.1,83,0.00,,,0.00,WUHU216HW,2013-08-07 13:09:00,
2013-08-07 09:14:00,65.7,60.4,30.09,SE,135,1.1,2.5,83,0.00,,,0.00,WUHU216HW,2013-08-07 13:14:00,
2013-08-07 09:19:00,65.9,60.6,30.10,SE,135,1.8,2.2,83,0.00,,,0.00,WUHU216HW,2013-08-07 13:19:00,
2013-08-07 09:24:00,65.9,60.3,30.09,SSE,158,1.1,2.5,82,0.00,,,0.00,WUHU216HW,2013-08-07 13:24:00,
2013-08-07 09:29:00,65.9,60.3,30.09,SE,135,2.5,2.7,82,0.00,,,0.00,WUHU216HW,2013-08-07 13:29:00,
2013-08-07 09:34:00,65.9,60.3,30.09,SE,135,1.1,2.7,82,0.00,,,0.00,WUHU216HW,2013-08-07 13:34:00,
2013-08-07 09:39:00,66.0,60.4,30.09,SE,135,1.8,2.5,82,0.00,,,0.00,WUHU216HW,2013-08-07 13:39:00,
2013-08-07 09:44:00,66.2,60.6,30.09,SE,135,2.5,2.5,82,0.00,,,0.00,WUHU216HW,2013-08-07 13:44:00,
2013-08-07 09:49:00,66.4,60.8,30.09,SSE,158,1.8,2.5,82,0.00,,,0.00,WUHU216HW,2013-08-07 13:49:00,
2013-08-07 09:54:00,66.8,61.2,30.09,ESE,113,3.4,4.0,82,0.00,,,0.00,WUHU216HW,2013-08-07 13:54:00,
2013-08-07 09:59:00,66.8,61.2,30.08,SE,135,2.2,4.0,82,0.00,,,0.00,WUHU216HW,2013-08-07 13:59:00,
2013-08-07 10:04:00,67.1,61.5,30.08,SE,135,3.4,3.4,82,0.00,,,0.00,WUHU216HW,2013-08-07 14:04:00,
2013-08-07 10:09:00,67.5,61.9,30.08,ESE,113,0.7,3.4,82,0.00,,,0.00,WUHU216HW,2013-08-07 14:09:00,
2013-08-07 10:14:00,67.8,62.2,30.08,SE,135,2.9,3.4,82,0.00,,,0.00,WUHU216HW,2013-08-07 14:14:00,
2013-08-07 10:19:00,67.8,61.8,30.08,ESE,113,3.4,3.4,81,0.00,,,0.00,WUHU216HW,2013-08-07 14:19:00,
2013-08-07 10:24:00,68.0,62.0,30.08,SE,135,1.8,3.4,81,0.00,,,0.00,WUHU216HW,2013-08-07 14:24:00,
2013-08-07 10:29:00,68.4,62.4,30.08,North,0,3.4,3.4,81,0.00,,,0.00,WUHU216HW,2013-08-07 14:29:00,
2013-08-07 10:34:00,68.6,62.3,30.09,ESE,113,1.1,3.4,80,0.00,,,0.00,WUHU216HW,2013-08-07 14:34:00,
2013-08-07 10:39:00,68.9,62.6,30.09,NNE,23,2.5,3.4,80,0.00,,,0.00,WUHU216HW,2013-08-07 14:39:00,
2013-08-07 10:44:00,68.9,62.6,30.09,SE,135,0.4,2.5,80,0.00,,,0.00,WUHU216HW,2013-08-07 14:44:00,
2013-08-07 10:49:00,68.9,62.2,30.09,East,90,0.9,2.5,79,0.00,,,0.00,WUHU216HW,2013-08-07 14:49:00,
2013-08-07 10:54:00,69.3,62.9,30.09,ENE,68,0.4,4.5,80,0.00,,,0.00,WUHU216HW,2013-08-07 14:54:00,
2013-08-07 10:59:00,69.3,62.6,30.09,SE,135,1.3,4.5,79,0.00,,,0.00,WUHU216HW,2013-08-07 14:59:00,
2013-08-07 11:04:00,69.6,62.9,30.09,ESE,113,0.9,1.8,79,0.00,,,0.00,WUHU216HW,2013-08-07 15:04:00,
2013-08-07 11:09:00,69.8,63.1,30.09,SE,135,0.7,2.5,79,0.00,,,0.00,WUHU216HW,2013-08-07 15:09:00,
2013-08-07 11:15:00,70.0,62.9,30.09,ESE,113,3.1,3.1,78,0.00,,,0.00,WUHU216HW,2013-08-07 15:15:00,
2013-08-07 11:20:00,70.0,62.9,30.09,South,180,1.3,3.1,78,0.00,,,0.00,WUHU216HW,2013-08-07 15:20:00,
2013-08-07 11:25:00,70.4,63.0,30.08,ESE,113,2.5,4.0,77,0.00,,,0.00,WUHU216HW,2013-08-07 15:25:00,
2013-08-07 11:30:00,70.2,62.8,30.09,SE,135,0.4,4.0,77,0.00,,,0.00,WUHU216HW,2013-08-07 15:30:00,
2013-08-07 11:35:00,70.2,62.8,30.09,SE,135,1.3,2.5,77,0.00,,,0.00,WUHU216HW,2013-08-07 15:35:00,
2013-08-07 11:40:00,70.4,63.0,30.09,SE,135,1.6,1.8,77,0.00,,,0.00,WUHU216HW,2013-08-07 15:40:00,
2013-08-07 11:45:00,70.4,63.0,30.09,SSE,158,2.5,2.5,77,0.00,,,0.00,WUHU216HW,2013-08-07 15:45:00,
2013-08-07 11:50:00,70.4,63.0,30.09,SE,135,1.1,4.0,77,0.00,,,0.00,WUHU216HW,2013-08-07 15:50:00,
2013-08-07 11:55:00,70.4,63.0,30.09,ESE,113,0.4,4.0,77,0.00,,,0.00,WUHU216HW,2013-08-07 15:55:00,
2013-08-07 12:00:00,70.4,63.0,30.09,ESE,113,1.8,1.8,77,0.00,,,0.00,WUHU216HW,2013-08-07 16:00:00,
2013-08-07 12:05:00,70.4,63.0,30.09,South,180,0.2,1.8,77,0.00,,,0.00,WUHU216HW,2013-08-07 16:05:00,
2013-08-07 12:11:00,70.5,63.4,30.09,ESE,113,3.4,3.4,78,0.00,,,0.00,WUHU216HW,2013-08-07 16:11:00,
2013-08-07 12:16:00,70.5,63.4,30.08,SE,135,0.7,3.4,78,0.00,,,0.00,WUHU216HW,2013-08-07 16:16:00,
2013-08-07 12:21:00,70.5,63.4,30.08,SE,135,0.9,2.7,78,0.00,,,0.00,WUHU216HW,2013-08-07 16:21:00,
2013-08-07 12:26:00,70.9,63.8,30.08,ESE,113,1.8,2.0,78,0.00,,,0.00,WUHU216HW,2013-08-07 16:26:00,
2013-08-07 12:31:00,71.3,63.8,30.08,SE,135,1.3,2.0,77,0.00,,,0.00,WUHU216HW,2013-08-07 16:31:00,
2013-08-07 12:36:00,71.6,64.1,30.09,NW,315,1.3,1.8,77,0.00,,,0.00,WUHU216HW,2013-08-07 16:36:00,
2013-08-07 12:41:00,71.8,64.0,30.09,West,270,3.4,3.4,76,0.00,,,0.00,WUHU216HW,2013-08-07 16:41:00,
2013-08-07 12:46:00,72.2,64.3,30.08,East,90,1.8,3.8,76,0.00,,,0.00,WUHU216HW,2013-08-07 16:46:00,
2013-08-07 12:51:00,72.5,64.3,30.08,East,90,2.9,3.8,75,0.00,,,0.00,WUHU216HW,2013-08-07 16:51:00,
2013-08-07 12:57:00,72.5,64.3,30.08,NW,315,0.4,2.9,75,0.00,,,0.00,WUHU216HW,2013-08-07 16:57:00,
2013-08-07 13:02:00,73.1,64.9,30.08,ESE,113,2.0,2.9,75,0.00,,,0.00,WUHU216HW,2013-08-07 17:02:00,
2013-08-07 13:07:00,73.2,64.6,30.08,SE,135,1.3,4.0,74,0.00,,,0.00,WUHU216HW,2013-08-07 17:07:00,
2013-08-07 13:12:00,73.4,64.8,30.07,SE,135,3.6,4.9,74,0.00,,,0.00,WUHU216HW,2013-08-07 17:12:00,
2013-08-07 13:17:00,74.0,65.3,30.07,SE,135,2.7,4.9,74,0.00,,,0.00,WUHU216HW,2013-08-07 17:17:00,
2013-08-07 13:22:00,74.1,65.4,30.07,North,0,0.9,3.6,74,0.00,,,0.00,WUHU216HW,2013-08-07 17:22:00,
2013-08-07 13:27:00,74.3,65.3,30.07,SSW,203,0.4,3.4,73,0.00,,,0.00,WUHU216HW,2013-08-07 17:27:00,
2013-08-07 13:32:00,74.5,65.4,30.07,SE,135,2.7,3.4,73,0.00,,,0.00,WUHU216HW,2013-08-07 17:32:00,
2013-08-07 13:37:00,74.7,65.3,30.07,SSE,158,2.9,3.4,72,0.00,,,0.00,WUHU216HW,2013-08-07 17:37:00,
2013-08-07 13:42:00,74.9,65.4,30.07,SSE,158,4.5,4.5,72,0.00,,,0.00,WUHU216HW,2013-08-07 17:42:00,
2013-08-07 13:47:00,74.9,65.1,30.07,SE,135,2.2,4.9,71,0.00,,,0.00,WUHU216HW,2013-08-07 17:47:00,
2013-08-07 13:52:00,74.7,64.9,30.06,South,180,1.8,4.9,71,0.00,,,0.00,WUHU216HW,2013-08-07 17:52:00,
2013-08-07 13:57:00,75.0,65.2,30.06,SSE,158,2.2,3.6,71,0.00,,,0.00,WUHU216HW,2013-08-07 17:57:00,
2013-08-07 14:02:00,75.2,65.3,30.06,East,90,0.4,3.6,71,0.00,,,0.00,WUHU216HW,2013-08-07 18:02:00,
2013-08-07 14:07:00,75.4,65.5,30.06,ENE,68,1.6,2.5,71,0.00,,,0.00,WUHU216HW,2013-08-07 18:07:00,
2013-08-07 14:12:00,75.2,65.3,30.07,ENE,68,2.5,2.9,71,0.00,,,0.00,WUHU216HW,2013-08-07 18:12:00,
2013-08-07 14:17:00,75.0,65.2,30.06,North,0,1.8,3.6,71,0.00,,,0.00,WUHU216HW,2013-08-07 18:17:00,
2013-08-07 14:22:00,74.9,65.1,30.06,ENE,68,0.4,3.6,71,0.00,,,0.00,WUHU216HW,2013-08-07 18:22:00,
2013-08-07 14:27:00,74.9,65.1,30.06,SE,135,3.4,3.6,71,0.00,,,0.00,WUHU216HW,2013-08-07 18:27:00,
2013-08-07 14:32:00,74.9,65.1,30.06,South,180,1.1,3.4,71,0.00,,,0.00,WUHU216HW,2013-08-07 18:32:00,
2013-08-07 14:37:00,74.7,64.9,30.06,SE,135,1.6,3.4,71,0.00,,,0.00,WUHU216HW,2013-08-07 18:37:00,
2013-08-07 14:42:00,74.3,64.5,30.06,NNE,23,0.4,2.2,71,0.00,,,0.00,WUHU216HW,2013-08-07 18:42:00,
2013-08-07 14:47:00,74.1,64.3,30.06,SSE,158,1.3,1.8,71,0.00,,,0.00,WUHU216HW,2013-08-07 18:47:00,
2013-08-07 14:52:00,74.0,64.6,30.06,SE,135,0.4,1.8,72,0.00,,,0.00,WUHU216HW,2013-08-07 18:52:00,
2013-08-07 14:57:00,74.0,64.6,30.06,SE,135,0.2,2.0,72,0.00,,,0.00,WUHU216HW,2013-08-07 18:57:00,
2013-08-07 15:02:00,74.0,64.6,30.06,SE,135,0.4,2.0,72,0.00,,,0.00,WUHU216HW,2013-08-07 19:02:00,
2013-08-07 15:07:00,74.1,65.1,30.06,SE,135,1.8,2.0,73,0.00,,,0.00,WUHU216HW,2013-08-07 19:07:00,
2013-08-07 15:12:00,74.5,65.4,30.05,SE,135,1.8,2.5,73,0.00,,,0.00,WUHU216HW,2013-08-07 19:12:00,
2013-08-07 15:17:00,74.7,65.3,30.05,SE,135,1.8,3.4,72,0.00,,,0.00,WUHU216HW,2013-08-07 19:17:00,
2013-08-07 15:22:00,74.9,65.1,30.05,SE,135,2.9,3.4,71,0.00,,,0.00,WUHU216HW,2013-08-07 19:22:00,
2013-08-07 15:27:00,74.7,64.9,30.05,SE,135,2.5,3.1,71,0.00,,,0.00,WUHU216HW,2013-08-07 19:27:00,
2013-08-07 15:32:00,74.5,64.7,30.05,SSE,158,2.5,3.1,71,0.00,,,0.00,WUHU216HW,2013-08-07 19:32:00,
2013-08-07 15:37:00,74.3,64.5,30.05,WSW,248,0.9,3.1,71,0.00,,,0.00,WUHU216HW,2013-08-07 19:37:00,
2013-08-07 15:42:00,73.6,64.6,30.06,SSE,158,0.4,2.5,73,0.00,,,0.00,WUHU216HW,2013-08-07 19:42:00,
2013-08-07 15:47:00,73.1,64.5,30.05,SE,135,1.1,2.2,74,0.00,,,0.00,WUHU216HW,2013-08-07 19:47:00,
2013-08-07 15:52:00,72.9,64.7,30.05,ESE,113,2.5,2.5,75,0.00,,,0.00,WUHU216HW,2013-08-07 19:52:00,
2013-08-07 15:57:00,72.5,64.6,30.05,ESE,113,2.2,3.8,76,0.00,,,0.00,WUHU216HW,2013-08-07 19:57:00,
2013-08-07 16:02:00,72.5,65.0,30.05,SE,135,1.3,3.8,77,0.00,,,0.00,WUHU216HW,2013-08-07 20:02:00,
2013-08-07 16:07:00,72.5,65.0,30.05,ESE,113,0.4,2.2,77,0.00,,,0.00,WUHU216HW,2013-08-07 20:07:00,
2013-08-07 16:12:00,72.5,65.4,30.05,ESE,113,1.8,2.0,78,0.00,,,0.00,WUHU216HW,2013-08-07 20:12:00,
2013-08-07 16:17:00,72.5,65.4,30.05,SE,135,1.1,2.5,78,0.00,,,0.00,WUHU216HW,2013-08-07 20:17:00,
2013-08-07 16:22:00,72.3,65.2,30.04,SE,135,2.0,2.5,78,0.00,,,0.00,WUHU216HW,2013-08-07 20:22:00,
2013-08-07 16:27:00,72.2,65.1,30.04,SE,135,2.2,2.2,78,0.00,,,0.00,WUHU216HW,2013-08-07 20:27:00,
2013-08-07 16:32:00,72.2,65.4,30.04,SSE,158,0.4,2.2,79,0.00,,,0.00,WUHU216HW,2013-08-07 20:32:00,
2013-08-07 16:37:00,72.0,65.2,30.05,SE,135,0.7,2.2,79,0.00,,,0.00,WUHU216HW,2013-08-07 20:37:00,
2013-08-07 16:42:00,72.2,65.4,30.04,ESE,113,1.3,1.8,79,0.00,,,0.00,WUHU216HW,2013-08-07 20:42:00,
2013-08-07 16:47:00,72.0,65.2,30.04,SE,135,0.4,1.8,79,0.00,,,0.00,WUHU216HW,2013-08-07 20:47:00,
2013-08-07 16:52:00,71.8,65.0,30.04,SSE,158,0.4,1.8,79,0.00,,,0.00,WUHU216HW,2013-08-07 20:52:00,
2013-08-07 16:57:00,71.6,65.2,30.04,ENE,68,1.3,1.6,80,0.00,,,0.00,WUHU216HW,2013-08-07 20:57:00,
2013-08-07 17:02:00,71.6,65.2,30.04,SE,135,2.2,2.2,80,0.00,,,0.00,WUHU216HW,2013-08-07 21:02:00,
2013-08-07 17:07:00,71.8,65.4,30.04,SE,135,0.2,2.2,80,0.00,,,0.00,WUHU216HW,2013-08-07 21:07:00,
2013-08-07 17:12:00,71.8,65.4,30.04,ESE,113,1.6,2.2,80,0.00,,,0.00,WUHU216HW,2013-08-07 21:12:00,
2013-08-07 17:18:00,71.8,65.7,30.04,SE,135,0.9,3.1,81,0.00,,,0.00,WUHU216HW,2013-08-07 21:18:00,
2013-08-07 17:23:00,71.8,65.7,30.04,SSW,203,1.3,3.1,81,0.00,,,0.00,WUHU216HW,2013-08-07 21:23:00,
2013-08-07 17:28:00,71.8,65.7,30.04,ESE,113,1.8,2.7,81,0.00,,,0.00,WUHU216HW,2013-08-07 21:28:00,
2013-08-07 17:33:00,71.6,65.2,30.04,ESE,113,1.1,2.7,80,0.00,,,0.00,WUHU216HW,2013-08-07 21:33:00,
2013-08-07 17:38:00,71.6,65.5,30.03,ESE,113,1.6,3.4,81,0.00,,,0.00,WUHU216HW,2013-08-07 21:38:00,
2013-08-07 17:43:00,71.4,65.3,30.03,SE,135,3.1,4.0,81,0.00,,,0.00,WUHU216HW,2013-08-07 21:43:00,
2013-08-07 17:48:00,71.3,65.2,30.03,SE,135,1.8,4.0,81,0.00,,,0.00,WUHU216HW,2013-08-07 21:48:00,
2013-08-07 17:53:00,71.3,65.2,30.03,South,180,0.9,3.1,81,0.00,,,0.00,WUHU216HW,2013-08-07 21:53:00,
2013-08-07 17:58:00,71.1,65.0,30.03,SSE,158,1.1,1.8,81,0.00,,,0.00,WUHU216HW,2013-08-07 21:58:00,
2013-08-07 18:03:00,71.1,65.0,30.04,WNW,293,1.1,1.8,81,0.00,,,0.00,WUHU216HW,2013-08-07 22:03:00,
2013-08-07 18:08:00,70.9,64.9,30.04,NNE,23,0.0,1.1,81,0.00,,,0.00,WUHU216HW,2013-08-07 22:08:00,
2013-08-07 18:13:00,70.5,64.1,30.03,SE,135,0.2,1.1,80,0.00,,,0.00,WUHU216HW,2013-08-07 22:13:00,
2013-08-07 18:18:00,70.4,64.0,30.03,ENE,68,0.2,0.9,80,0.00,,,0.00,WUHU216HW,2013-08-07 22:18:00,
2013-08-07 18:23:00,70.4,64.0,30.03,SE,135,0.7,2.2,80,0.00,,,0.00,WUHU216HW,2013-08-07 22:23:00,
2013-08-07 18:28:00,70.4,64.0,30.03,SE,135,1.1,2.5,80,0.00,,,0.00,WUHU216HW,2013-08-07 22:28:00,
2013-08-07 18:33:00,70.4,64.4,30.03,SE,135,0.0,2.5,81,0.00,,,0.00,WUHU216HW,2013-08-07 22:33:00,
2013-08-07 18:38:00,70.4,64.4,30.03,SE,135,0.0,1.3,81,0.00,,,0.00,WUHU216HW,2013-08-07 22:38:00,
2013-08-07 18:43:00,70.2,64.2,30.03,SSE,158,1.1,1.1,81,0.00,,,0.00,WUHU216HW,2013-08-07 22:43:00,
2013-08-07 18:48:00,70.2,64.2,30.03,SE,135,1.1,1.8,81,0.00,,,0.00,WUHU216HW,2013-08-07 22:48:00,
2013-08-07 18:53:00,70.0,64.0,30.03,SE,135,0.7,1.8,81,0.00,,,0.00,WUHU216HW,2013-08-07 22:53:00,
2013-08-07 18:58:00,70.0,64.0,30.03,West,270,0.0,1.3,81,0.00,,,0.00,WUHU216HW,2013-08-07 22:58:00,
2013-08-07 19:04:00,69.8,63.8,30.03,SE,135,1.1,1.1,81,0.00,,,0.00,WUHU216HW,2013-08-07 23:04:00,
2013-08-07 19:09:00,69.6,63.9,30.02,SSE,158,0.7,1.3,82,0.00,,,0.00,WUHU216HW,2013-08-07 23:09:00,
2013-08-07 19:14:00,69.6,63.9,30.02,NNE,23,0.7,3.4,82,0.00,,,0.00,WUHU216HW,2013-08-07 23:14:00,
2013-08-07 19:19:00,69.6,63.9,30.02,ESE,113,0.9,3.4,82,0.00,,,0.00,WUHU216HW,2013-08-07 23:19:00,
2013-08-07 19:24:00,69.6,63.9,30.03,SSE,158,0.4,1.1,82,0.00,,,0.00,WUHU216HW,2013-08-07 23:24:00,
2013-08-07 19:29:00,69.6,63.9,30.02,SE,135,0.7,1.3,82,0.00,,,0.00,WUHU216HW,2013-08-07 23:29:00,
2013-08-07 19:34:00,69.6,63.9,30.03,SE,135,1.3,2.0,82,0.00,,,0.00,WUHU216HW,2013-08-07 23:34:00,
2013-08-07 19:39:00,69.6,63.9,30.02,SE,135,1.1,2.0,82,0.00,,,0.00,WUHU216HW,2013-08-07 23:39:00,
2013-08-07 19:44:00,69.6,64.3,30.03,SE,135,0.4,1.3,83,0.00,,,0.00,WUHU216HW,2013-08-07 23:44:00,
2013-08-07 19:50:00,69.5,64.2,30.03,SE,135,1.1,1.1,83,0.00,,,0.00,WUHU216HW,2013-08-07 23:50:00,
2013-08-07 19:55:00,69.5,64.2,30.02,SE,135,1.1,1.6,83,0.00,,,0.00,WUHU216HW,2013-08-07 23:55:00,
2013-08-07 20:00:00,69.3,64.0,30.02,SE,135,1.1,1.6,83,0.00,,,0.00,WUHU216HW,2013-08-08 00:00:00,
2013-08-07 20:05:00,69.3,64.0,30.02,ESE,113,1.1,1.6,83,0.00,,,0.00,WUHU216HW,2013-08-08 00:05:00,
2013-08-07 20:10:00,69.1,63.8,30.02,SSE,158,1.8,1.8,83,0.00,,,0.00,WUHU216HW,2013-08-08 00:10:00,
2013-08-07 20:15:00,69.1,63.8,30.02,SE,135,0.9,1.8,83,0.00,,,0.00,WUHU216HW,2013-08-08 00:15:00,
2013-08-07 20:20:00,68.9,63.9,30.03,East,90,0.0,1.8,84,0.00,,,0.00,WUHU216HW,2013-08-08 00:20:00,
2013-08-07 20:25:00,68.9,63.9,30.03,SSE,158,0.0,0.9,84,0.00,,,0.00,WUHU216HW,2013-08-08 00:25:00,
2013-08-07 20:30:00,68.9,63.9,30.03,SE,135,1.1,1.1,84,0.00,,,0.00,WUHU216HW,2013-08-08 00:30:00,
2013-08-07 20:35:00,68.7,63.7,30.03,SSE,158,0.9,1.6,84,0.00,,,0.00,WUHU216HW,2013-08-08 00:35:00,
2013-08-07 20:40:00,68.7,63.7,30.02,SE,135,0.4,1.8,84,0.00,,,0.00,WUHU216HW,2013-08-08 00:40:00,
2013-08-07 20:45:00,68.7,63.7,30.02,SE,135,1.3,1.8,84,0.00,,,0.00,WUHU216HW,2013-08-08 00:45:00,
2013-08-07 20:50:00,68.7,63.7,30.03,ESE,113,0.4,1.8,84,0.00,,,0.00,WUHU216HW,2013-08-08 00:50:00,
2013-08-07 20:55:00,68.6,63.6,30.03,ESE,113,1.8,1.8,84,0.00,,,0.00,WUHU216HW,2013-08-08 00:55:00,
2013-08-07 21:00:00,68.6,63.6,30.03,ESE,113,0.9,1.8,84,0.00,,,0.00,WUHU216HW,2013-08-08 01:00:00,
2013-08-07 21:06:00,68.6,63.6,30.03,SE,135,1.8,1.8,84,0.00,,,0.00,WUHU216HW,2013-08-08 01:06:00,
2013-08-07 21:11:00,68.4,63.4,30.03,SE,135,2.2,2.2,84,0.00,,,0.00,WUHU216HW,2013-08-08 01:11:00,
2013-08-07 21:16:00,68.2,63.2,30.03,ESE,113,0.7,2.2,84,0.00,,,0.00,WUHU216HW,2013-08-08 01:16:00,
2013-08-07 21:21:00,68.2,63.2,30.03,ESE,113,1.1,2.2,84,0.00,,,0.00,WUHU216HW,2013-08-08 01:21:00,
2013-08-07 21:26:00,68.2,63.2,30.03,WNW,293,0.4,1.1,84,0.00,,,0.00,WUHU216HW,2013-08-08 01:26:00,
2013-08-07 21:31:00,68.2,63.2,30.03,SSE,158,1.8,1.8,84,0.00,,,0.00,WUHU216HW,2013-08-08 01:31:00,
2013-08-07 21:36:00,68.0,63.0,30.03,SE,135,2.9,2.9,84,0.00,,,0.00,WUHU216HW,2013-08-08 01:36:00,
2013-08-07 21:41:00,68.0,63.0,30.04,NW,315,0.7,2.9,84,0.00,,,0.00,WUHU216HW,2013-08-08 01:41:00,
2013-08-07 21:46:00,68.0,63.3,30.04,SSW,203,1.3,2.9,85,0.00,,,0.00,WUHU216HW,2013-08-08 01:46:00,
2013-08-07 21:51:00,67.8,63.1,30.04,SE,135,1.1,1.3,85,0.00,,,0.00,WUHU216HW,2013-08-08 01:51:00,
2013-08-07 21:56:00,67.8,63.1,30.03,SE,135,1.6,1.8,85,0.00,,,0.00,WUHU216HW,2013-08-08 01:56:00,
2013-08-07 22:02:00,67.7,63.0,30.03,ESE,113,1.1,1.8,85,0.00,,,0.00,WUHU216HW,2013-08-08 02:02:00,
2013-08-07 22:07:00,67.7,63.0,30.03,ESE,113,0.4,1.6,85,0.00,,,0.00,WUHU216HW,2013-08-08 02:07:00,
2013-08-07 22:12:00,67.7,63.0,30.04,ESE,113,1.1,1.1,85,0.00,,,0.00,WUHU216HW,2013-08-08 02:12:00,
2013-08-07 22:17:00,67.5,62.9,30.04,South,180,0.4,1.1,85,0.00,,,0.00,WUHU216HW,2013-08-08 02:17:00,
2013-08-07 22:22:00,67.7,63.4,30.04,WNW,293,0.7,1.1,86,0.00,,,0.00,WUHU216HW,2013-08-08 02:22:00,
2013-08-07 22:27:00,67.7,63.4,30.04,ESE,113,0.7,1.8,86,0.00,,,0.00,WUHU216HW,2013-08-08 02:27:00,
2013-08-07 22:32:00,67.5,63.2,30.04,SE,135,0.4,1.8,86,0.00,,,0.00,WUHU216HW,2013-08-08 02:32:00,
2013-08-07 22:37:00,67.5,63.2,30.04,SE,135,1.1,1.1,86,0.00,,,0.00,WUHU216HW,2013-08-08 02:37:00,
2013-08-07 22:42:00,67.5,63.2,30.03,SSE,158,1.6,1.6,86,0.00,,,0.00,WUHU216HW,2013-08-08 02:42:00,
2013-08-07 22:47:00,67.5,63.2,30.03,SSE,158,0.4,1.6,86,0.00,,,0.00,WUHU216HW,2013-08-08 02:47:00,
2013-08-07 22:52:00,67.5,63.2,30.03,SE,135,1.1,1.6,86,0.00,,,0.00,WUHU216HW,2013-08-08 02:52:00,
2013-08-07 22:57:00,67.5,63.2,30.03,ESE,113,1.1,1.1,86,0.00,,,0.00,WUHU216HW,2013-08-08 02:57:00,
2013-08-07 23:03:00,67.5,63.2,30.03,SSE,158,0.9,1.1,86,0.00,,,0.00,WUHU216HW,2013-08-08 03:03:00,
2013-08-07 23:08:00,67.5,63.2,30.03,East,90,0.2,1.1,86,0.00,,,0.00,WUHU216HW,2013-08-08 03:08:00,
2013-08-07 23:13:00,67.5,63.2,30.02,East,90,2.0,2.0,86,0.00,,,0.00,WUHU216HW,2013-08-08 03:13:00,
2013-08-07 23:18:00,67.5,63.5,30.02,ESE,113,2.0,2.0,87,0.00,,,0.00,WUHU216HW,2013-08-08 03:18:00,
2013-08-07 23:23:00,67.5,63.5,30.02,SSE,158,2.5,2.5,87,0.00,,,0.00,WUHU216HW,2013-08-08 03:23:00,
2013-08-07 23:28:00,67.5,63.5,30.02,SSE,158,1.8,2.5,87,0.00,,,0.00,WUHU216HW,2013-08-08 03:28:00,
2013-08-07 23:33:00,67.5,63.5,30.02,ESE,113,0.9,2.5,87,0.00,,,0.00,WUHU216HW,2013-08-08 03:33:00,
2013-08-07 23:38:00,67.5,63.5,30.02,South,180,0.4,1.8,87,0.00,,,0.00,WUHU216HW,2013-08-08 03:38:00,
2013-08-07 23:43:00,67.5,63.5,30.02,SE,135,1.1,1.1,87,0.00,,,0.00,WUHU216HW,2013-08-08 03:43:00,
2013-08-07 23:48:00,67.3,63.3,30.02,SSE,158,0.0,2.2,87,0.00,,,0.00,WUHU216HW,2013-08-08 03:48:00,
2013-08-07 23:53:00,67.5,63.5,30.02,SE,135,0.4,2.2,87,0.00,,,0.00,WUHU216HW,2013-08-08 03:53:00,
2013-08-07 23:59:00,67.5,63.5,30.02,SE,135,0.4,0.4,87,0.00,,,0.00,WUHU216HW,2013-08-08 03:59:00,